CFG220 LGKR-EDDH

Flight info

Callsign CFG220
Flight time 2h 18m
Altitude 38000
Route OLGAT DCT ABADI DCT CRAYE DCT GISAM DCT SIPAL DCT UNIPA DCT GORPA DCT LAMSI DCT ARMUT DCT KENIG DCT ABGUS DCT DIRBO/N0347F230 T902 RARUP RARUP6A
Aircraft A20N/M-SDE2E3FGHIRWXY/LB1

Departure

Time 2026-05-07 08:54
Airport Corfu Ioannis Kapodistrias International Airport (LGKR)

Arrival

Time 2026-05-07 11:13
Airport Hamburg Helmut Schmidt Airport (EDDH)
Time Latitude Longitude Altitude Speed Heading
2026-05-07 08:33 39.60629 19.91364 18 ft 0 kts 79°
2026-05-07 08:46 39.60628 19.91362 18 ft 2 kts 79°
2026-05-07 08:46 39.60624 19.91329 20 ft 4 kts 79°
2026-05-07 08:46 39.60619 19.91299 18 ft 2 kts 79°
2026-05-07 08:46 39.60617 19.91267 18 ft 4 kts 105°
2026-05-07 08:47 39.60630 19.91239 20 ft 4 kts 151°
2026-05-07 08:47 39.60653 19.91229 20 ft 4 kts 168°
2026-05-07 08:47 39.60666 19.91225 19 ft 1 kts 168°
2026-05-07 08:49 39.60648 19.91230 20 ft 6 kts 171°
2026-05-07 08:49 39.60594 19.91213 18 ft 10 kts 215°
2026-05-07 08:50 39.60525 19.91159 19 ft 13 kts 203°
2026-05-07 08:50 39.60426 19.91152 19 ft 16 kts 168°
2026-05-07 08:50 39.60310 19.91184 20 ft 14 kts 169°
2026-05-07 08:50 39.60233 19.91204 21 ft 13 kts 168°
2026-05-07 08:51 39.60126 19.91231 21 ft 19 kts 169°
2026-05-07 08:51 39.59983 19.91267 21 ft 15 kts 169°
2026-05-07 08:51 39.59869 19.91296 23 ft 20 kts 169°
2026-05-07 08:51 39.59715 19.91336 19 ft 25 kts 168°
2026-05-07 08:52 39.59546 19.91381 18 ft 26 kts 168°
2026-05-07 08:52 39.59358 19.91429 17 ft 25 kts 168°
2026-05-07 08:52 39.59229 19.91465 17 ft 12 kts 161°
2026-05-07 08:52 39.59164 19.91508 17 ft 6 kts 205°
2026-05-07 08:53 39.59161 19.91452 18 ft 9 kts 332°
2026-05-07 08:53 39.59232 19.91463 17 ft 12 kts 353°
2026-05-07 08:53 39.59253 19.91457 17 ft 8 kts 347°
2026-05-07 08:53 39.59499 19.91394 17 ft 71 kts 348°
2026-05-07 08:54 39.60199 19.91216 21 ft 130 kts 349°
2026-05-07 08:54 39.61184 19.90961 368 ft 138 kts 350°
2026-05-07 08:54 39.62031 19.90745 1097 ft 123 kts 352°
2026-05-07 08:54 39.62967 19.90386 1639 ft 154 kts 338°
2026-05-07 08:55 39.63956 19.89614 2317 ft 178 kts 320°
2026-05-07 08:55 39.64852 19.88375 3033 ft 189 kts 312°
2026-05-07 08:55 39.65865 19.87226 3590 ft 206 kts 339°
2026-05-07 08:55 39.67289 19.86705 4188 ft 220 kts 345°
2026-05-07 08:56 39.68789 19.85961 4724 ft 242 kts 327°
2026-05-07 08:56 39.70010 19.84356 5279 ft 263 kts 303°
2026-05-07 08:56 39.70940 19.82257 6181 ft 272 kts 296°
2026-05-07 08:56 39.71828 19.80066 7317 ft 272 kts 296°
2026-05-07 08:57 39.72770 19.77919 8335 ft 277 kts 297°
2026-05-07 08:57 39.73781 19.75779 9348 ft 280 kts 298°
2026-05-07 08:57 39.74839 19.73639 10336 ft 284 kts 298°
2026-05-07 08:57 39.75952 19.71429 10896 ft 304 kts 298°
2026-05-07 08:58 39.77170 19.69023 11290 ft 327 kts 299°
2026-05-07 08:58 39.78444 19.66518 12042 ft 335 kts 299°
2026-05-07 08:58 39.79730 19.63998 13038 ft 337 kts 299°
2026-05-07 08:58 39.81018 19.61463 13968 ft 339 kts 299°
2026-05-07 08:59 39.82334 19.58860 14733 ft 345 kts 299°
2026-05-07 08:59 39.83646 19.56253 15457 ft 350 kts 299°
2026-05-07 08:59 39.85020 19.53612 16169 ft 357 kts 303°
2026-05-07 08:59 39.86683 19.51129 16914 ft 364 kts 310°
2026-05-07 09:00 39.88468 19.48757 17637 ft 369 kts 310°
2026-05-07 09:00 39.90257 19.46361 18345 ft 374 kts 310°
2026-05-07 09:00 39.92077 19.43914 18956 ft 378 kts 310°
2026-05-07 09:00 39.93922 19.41428 19598 ft 382 kts 310°
2026-05-07 09:01 39.95753 19.38962 20220 ft 386 kts 310°
2026-05-07 09:01 39.97647 19.36407 20862 ft 390 kts 310°
2026-05-07 09:01 39.99542 19.33851 21483 ft 394 kts 310°
2026-05-07 09:01 40.01448 19.31278 22073 ft 398 kts 310°
2026-05-07 09:02 40.03377 19.28671 22673 ft 402 kts 310°
2026-05-07 09:02 40.05339 19.26016 23257 ft 407 kts 310°
2026-05-07 09:02 40.07296 19.23367 23806 ft 411 kts 310°
2026-05-07 09:02 40.09290 19.20665 24331 ft 414 kts 310°
2026-05-07 09:03 40.11295 19.17947 24852 ft 417 kts 310°
2026-05-07 09:03 40.13336 19.15177 25361 ft 420 kts 310°
2026-05-07 09:03 40.15351 19.12441 25852 ft 423 kts 310°
2026-05-07 09:03 40.17394 19.09663 26327 ft 426 kts 310°
2026-05-07 09:04 40.19446 19.06870 26801 ft 429 kts 310°
2026-05-07 09:04 40.21514 19.04052 27259 ft 431 kts 310°
2026-05-07 09:04 40.23727 19.01317 27711 ft 437 kts 317°
2026-05-07 09:04 40.26202 18.98935 28139 ft 443 kts 324°
2026-05-07 09:05 40.28882 18.96938 28553 ft 448 kts 329°
2026-05-07 09:05 40.31636 18.95034 28947 ft 451 kts 329°
2026-05-07 09:05 40.34433 18.93081 29347 ft 453 kts 329°
2026-05-07 09:05 40.37206 18.91140 29720 ft 456 kts 329°
2026-05-07 09:06 40.40025 18.89165 30105 ft 459 kts 329°
2026-05-07 09:06 40.42865 18.87176 30447 ft 462 kts 329°
2026-05-07 09:06 40.45684 18.85200 30804 ft 463 kts 329°
2026-05-07 09:06 40.48547 18.83192 31155 ft 465 kts 329°
2026-05-07 09:07 40.51378 18.81205 31547 ft 465 kts 329°
2026-05-07 09:07 40.54247 18.79190 32006 ft 464 kts 329°
2026-05-07 09:07 40.57067 18.77208 32471 ft 462 kts 329°
2026-05-07 09:07 40.59907 18.75209 32937 ft 461 kts 329°
2026-05-07 09:08 40.62714 18.73232 33370 ft 459 kts 329°
2026-05-07 09:08 40.65545 18.71236 33793 ft 458 kts 328°
2026-05-07 09:08 40.68344 18.69259 34182 ft 458 kts 328°
2026-05-07 09:08 40.71128 18.67292 34532 ft 456 kts 328°
2026-05-07 09:09 40.73948 18.65298 34900 ft 454 kts 328°
2026-05-07 09:09 40.76708 18.63350 35241 ft 453 kts 328°
2026-05-07 09:09 40.79488 18.61447 35591 ft 452 kts 329°
2026-05-07 09:09 40.82304 18.59552 35936 ft 451 kts 329°
2026-05-07 09:10 40.85082 18.57683 36247 ft 449 kts 329°
2026-05-07 09:10 40.87855 18.55811 36570 ft 448 kts 328°
2026-05-07 09:10 40.90622 18.53935 36874 ft 446 kts 328°
2026-05-07 09:10 40.93385 18.52056 37177 ft 445 kts 328°
2026-05-07 09:11 40.96136 18.50183 37470 ft 444 kts 328°
2026-05-07 09:11 40.98875 18.48315 37738 ft 443 kts 328°
2026-05-07 09:11 41.01603 18.46453 38012 ft 442 kts 328°
2026-05-07 09:11 41.04346 18.44579 38097 ft 441 kts 328°
2026-05-07 09:12 41.09779 18.40861 38096 ft 440 kts 328°
2026-05-07 09:12 41.15217 18.37133 38092 ft 440 kts 328°
2026-05-07 09:13 41.20650 18.33401 38092 ft 441 kts 328°
2026-05-07 09:13 41.26107 18.29646 38092 ft 441 kts 328°
2026-05-07 09:14 41.31543 18.25899 38091 ft 441 kts 328°
2026-05-07 09:14 41.37013 18.22120 38093 ft 441 kts 328°
2026-05-07 09:15 41.42456 18.18354 38093 ft 442 kts 328°
2026-05-07 09:15 41.47904 18.14577 38087 ft 442 kts 328°
2026-05-07 09:16 41.53135 18.10388 38088 ft 438 kts 321°
2026-05-07 09:16 41.58232 18.05866 38087 ft 439 kts 322°
2026-05-07 09:17 41.63320 18.01365 38090 ft 439 kts 322°
2026-05-07 09:17 41.68412 17.96841 38088 ft 439 kts 322°
2026-05-07 09:18 41.73502 17.92305 38083 ft 440 kts 322°
2026-05-07 09:18 41.78585 17.87767 38090 ft 440 kts 322°
2026-05-07 09:19 41.83672 17.83216 38086 ft 440 kts 322°
2026-05-07 09:19 41.88762 17.78654 38087 ft 441 kts 322°
2026-05-07 09:20 41.94159 17.74631 38083 ft 447 kts 332°
2026-05-07 09:20 41.99919 17.71452 38081 ft 448 kts 333°
2026-05-07 09:21 42.05661 17.68259 38085 ft 448 kts 333°
2026-05-07 09:21 42.11454 17.65043 38087 ft 449 kts 333°
2026-05-07 09:22 42.17217 17.61845 38080 ft 449 kts 333°
2026-05-07 09:22 42.22999 17.58649 38089 ft 450 kts 333°
2026-05-07 09:23 42.28728 17.55201 38086 ft 449 kts 331°
2026-05-07 09:23 42.34382 17.51745 38080 ft 447 kts 332°
2026-05-07 09:24 42.40081 17.48342 38080 ft 449 kts 332°
2026-05-07 09:24 42.45808 17.44943 38078 ft 449 kts 332°
2026-05-07 09:25 42.50573 17.42109 38082 ft 449 kts 332°
2026-05-07 09:25 42.56302 17.38693 38077 ft 450 kts 332°
2026-05-07 09:26 42.62046 17.35261 38078 ft 450 kts 332°
2026-05-07 09:26 42.67784 17.31825 38078 ft 450 kts 332°
2026-05-07 09:27 42.73511 17.28389 38077 ft 451 kts 332°
2026-05-07 09:28 42.82111 17.23215 38084 ft 451 kts 332°
2026-05-07 09:28 42.87843 17.19760 38083 ft 451 kts 332°
2026-05-07 09:29 42.93594 17.16285 38081 ft 451 kts 332°
2026-05-07 09:29 42.99339 17.12805 38086 ft 452 kts 332°
2026-05-07 09:30 43.05063 17.09332 38089 ft 451 kts 332°
2026-05-07 09:30 43.10789 17.05851 38092 ft 451 kts 332°
2026-05-07 09:31 43.16543 17.02346 38083 ft 450 kts 332°
2026-05-07 09:31 43.22244 16.98865 38082 ft 451 kts 332°
2026-05-07 09:32 43.27989 16.95350 38084 ft 451 kts 332°
2026-05-07 09:32 43.33724 16.91834 38086 ft 452 kts 332°
2026-05-07 09:33 43.39452 16.88316 38086 ft 450 kts 332°
2026-05-07 09:33 43.45168 16.84799 38089 ft 448 kts 332°
2026-05-07 09:34 43.50894 16.81263 38086 ft 452 kts 332°
2026-05-07 09:34 43.56632 16.77716 38081 ft 452 kts 332°
2026-05-07 09:35 43.62353 16.74173 38082 ft 453 kts 331°
2026-05-07 09:35 43.68071 16.70624 38087 ft 452 kts 331°
2026-05-07 09:36 43.73797 16.67063 38080 ft 451 kts 331°
2026-05-07 09:36 43.79515 16.63499 38069 ft 451 kts 331°
2026-05-07 09:37 43.85240 16.59922 38067 ft 452 kts 331°
2026-05-07 09:37 43.90975 16.56331 38058 ft 451 kts 331°
2026-05-07 09:38 43.96711 16.52733 38054 ft 451 kts 331°
2026-05-07 09:38 44.02402 16.49156 38055 ft 452 kts 331°
2026-05-07 09:39 44.08126 16.45550 38058 ft 452 kts 331°
2026-05-07 09:39 44.13887 16.41911 38052 ft 452 kts 331°
2026-05-07 09:40 44.19618 16.38285 38054 ft 453 kts 331°
2026-05-07 09:40 44.25330 16.34663 38046 ft 453 kts 330°
2026-05-07 09:41 44.31081 16.31008 38047 ft 454 kts 330°
2026-05-07 09:41 44.36845 16.27338 38051 ft 455 kts 330°
2026-05-07 09:42 44.42596 16.23668 38050 ft 455 kts 330°
2026-05-07 09:42 44.48383 16.19967 38053 ft 456 kts 330°
2026-05-07 09:43 44.54144 16.16274 38054 ft 456 kts 330°
2026-05-07 09:43 44.59893 16.12582 38049 ft 456 kts 330°
2026-05-07 09:44 44.65676 16.08859 38043 ft 456 kts 330°
2026-05-07 09:44 44.71420 16.05153 38043 ft 456 kts 330°
2026-05-07 09:45 44.77200 16.01416 38050 ft 456 kts 330°
2026-05-07 09:45 44.82959 15.97684 38045 ft 456 kts 330°
2026-05-07 09:46 44.88729 15.93937 38044 ft 456 kts 330°
2026-05-07 09:46 44.94495 15.90184 38040 ft 456 kts 329°
2026-05-07 09:47 45.00262 15.86422 38034 ft 455 kts 329°
2026-05-07 09:47 45.05985 15.82680 38029 ft 456 kts 329°
2026-05-07 09:48 45.11737 15.78910 38021 ft 455 kts 329°
2026-05-07 09:48 45.17493 15.75130 38018 ft 455 kts 329°
2026-05-07 09:49 45.23240 15.71347 38016 ft 455 kts 329°
2026-05-07 09:49 45.28956 15.67576 38015 ft 455 kts 329°
2026-05-07 09:50 45.34720 15.63765 38017 ft 456 kts 329°
2026-05-07 09:50 45.40476 15.59951 38021 ft 456 kts 329°
2026-05-07 09:51 45.46198 15.56150 38024 ft 456 kts 329°
2026-05-07 09:51 45.51947 15.52323 38023 ft 456 kts 329°
2026-05-07 09:52 45.57709 15.48479 38020 ft 456 kts 329°
2026-05-07 09:52 45.63446 15.44643 38016 ft 456 kts 329°
2026-05-07 09:53 45.69214 15.40780 38019 ft 456 kts 329°
2026-05-07 09:53 45.74972 15.36916 38020 ft 457 kts 329°
2026-05-07 09:54 45.80743 15.33186 38010 ft 459 kts 332°
2026-05-07 09:54 45.86707 15.29801 38014 ft 460 kts 333°
2026-05-07 09:55 45.92666 15.26395 38008 ft 461 kts 332°
2026-05-07 09:55 45.98635 15.22925 38019 ft 461 kts 332°
2026-05-07 09:56 46.04555 15.19462 38016 ft 462 kts 332°
2026-05-07 09:56 46.10506 15.15969 37993 ft 463 kts 332°
2026-05-07 09:57 46.16486 15.12452 37999 ft 464 kts 332°
2026-05-07 09:57 46.22469 15.08928 38004 ft 464 kts 332°
2026-05-07 09:58 46.28427 15.05411 37996 ft 465 kts 332°
2026-05-07 09:58 46.34432 15.01855 37994 ft 466 kts 332°
2026-05-07 09:59 46.40419 14.98303 37990 ft 466 kts 332°
2026-05-07 09:59 46.46432 14.94725 37996 ft 467 kts 332°
2026-05-07 10:00 46.52458 14.91134 37985 ft 467 kts 332°
2026-05-07 10:00 46.58468 14.87543 37979 ft 466 kts 332°
2026-05-07 10:01 46.64480 14.83941 37977 ft 467 kts 332°
2026-05-07 10:01 46.70453 14.80354 37982 ft 468 kts 332°
2026-05-07 10:02 46.76475 14.76730 37975 ft 467 kts 332°
2026-05-07 10:02 46.82481 14.73107 37969 ft 467 kts 332°
2026-05-07 10:03 46.88488 14.69472 37967 ft 466 kts 332°
2026-05-07 10:03 46.94474 14.65842 37973 ft 466 kts 332°
2026-05-07 10:04 47.00466 14.62199 37961 ft 465 kts 332°
2026-05-07 10:04 47.06405 14.58581 37953 ft 464 kts 332°
2026-05-07 10:05 47.12385 14.54930 37965 ft 465 kts 332°
2026-05-07 10:05 47.18371 14.51259 37970 ft 468 kts 332°
2026-05-07 10:06 47.24336 14.47600 37969 ft 466 kts 332°
2026-05-07 10:06 47.30307 14.43925 37966 ft 467 kts 332°
2026-05-07 10:07 47.36301 14.40229 37968 ft 467 kts 332°
2026-05-07 10:07 47.42321 14.36507 37979 ft 467 kts 332°
2026-05-07 10:08 47.48280 14.32813 37978 ft 468 kts 332°
2026-05-07 10:08 47.54292 14.29075 37975 ft 466 kts 332°
2026-05-07 10:09 47.60262 14.25359 37987 ft 467 kts 332°
2026-05-07 10:09 47.66247 14.21621 37990 ft 467 kts 332°
2026-05-07 10:10 47.71232 14.18500 37991 ft 466 kts 332°
2026-05-07 10:10 47.77229 14.14738 37999 ft 467 kts 332°
2026-05-07 10:11 47.83216 14.10973 37998 ft 466 kts 332°
2026-05-07 10:11 47.89145 14.07235 38000 ft 466 kts 332°
2026-05-07 10:12 47.95130 14.03452 37995 ft 465 kts 332°
2026-05-07 10:12 48.01061 13.99694 38018 ft 464 kts 332°
2026-05-07 10:13 48.07043 13.95892 38017 ft 468 kts 332°
2026-05-07 10:13 48.13011 13.92092 38016 ft 467 kts 332°
2026-05-07 10:14 48.18984 13.88279 38008 ft 468 kts 332°
2026-05-07 10:14 48.24973 13.84445 38007 ft 468 kts 332°
2026-05-07 10:15 48.30966 13.80600 38004 ft 467 kts 332°
2026-05-07 10:15 48.36953 13.76749 38000 ft 467 kts 332°
2026-05-07 10:16 48.42917 13.72901 37989 ft 466 kts 332°
2026-05-07 10:16 48.48872 13.69051 37984 ft 466 kts 332°
2026-05-07 10:17 48.54819 13.65195 37977 ft 466 kts 332°
2026-05-07 10:17 48.60785 13.61320 37978 ft 466 kts 332°
2026-05-07 10:18 48.66445 13.56786 37978 ft 460 kts 322°
2026-05-07 10:18 48.71604 13.51082 37980 ft 456 kts 317°
2026-05-07 10:19 48.76682 13.45281 37976 ft 456 kts 318°
2026-05-07 10:19 48.81716 13.39499 37982 ft 457 kts 317°
2026-05-07 10:20 48.86786 13.33635 37987 ft 457 kts 317°
2026-05-07 10:20 48.91830 13.27782 37984 ft 457 kts 317°
2026-05-07 10:21 48.96902 13.21881 37991 ft 457 kts 317°
2026-05-07 10:21 49.01947 13.15996 37988 ft 457 kts 317°
2026-05-07 10:22 49.06952 13.10143 37984 ft 456 kts 317°
2026-05-07 10:22 49.11995 13.04229 37981 ft 456 kts 317°
2026-05-07 10:23 49.17031 12.98309 37982 ft 456 kts 318°
2026-05-07 10:23 49.22038 12.92407 37989 ft 455 kts 318°
2026-05-07 10:24 49.27054 12.86479 37977 ft 455 kts 318°
2026-05-07 10:24 49.32050 12.80558 37976 ft 454 kts 318°
2026-05-07 10:25 49.37034 12.74635 37978 ft 454 kts 318°
2026-05-07 10:25 49.42037 12.68674 37965 ft 453 kts 318°
2026-05-07 10:26 49.46983 12.62765 37968 ft 452 kts 318°
2026-05-07 10:26 49.51943 12.56825 37962 ft 451 kts 318°
2026-05-07 10:27 49.56889 12.50887 37953 ft 450 kts 318°
2026-05-07 10:27 49.61803 12.44970 37956 ft 450 kts 318°
2026-05-07 10:28 49.66748 12.39001 37946 ft 450 kts 318°
2026-05-07 10:28 49.71916 12.33507 37938 ft 454 kts 327°
2026-05-07 10:29 49.77707 12.29450 37936 ft 459 kts 338°
2026-05-07 10:29 49.83732 12.26215 37939 ft 459 kts 337°
2026-05-07 10:30 49.92772 12.21312 37936 ft 460 kts 338°
2026-05-07 10:30 49.98841 12.18029 37933 ft 461 kts 338°
2026-05-07 10:31 50.04901 12.14746 37941 ft 462 kts 338°
2026-05-07 10:31 50.11003 12.11432 37942 ft 463 kts 338°
2026-05-07 10:32 50.17073 12.08125 37945 ft 464 kts 338°
2026-05-07 10:32 50.23155 12.04803 37946 ft 465 kts 338°
2026-05-07 10:33 50.29254 12.01463 37949 ft 465 kts 338°
2026-05-07 10:33 50.35390 11.98094 37954 ft 465 kts 338°
2026-05-07 10:34 50.41492 11.94733 37945 ft 466 kts 338°
2026-05-07 10:34 50.47598 11.91362 37943 ft 463 kts 337°
2026-05-07 10:35 50.53655 11.88008 37943 ft 464 kts 338°
2026-05-07 10:35 50.59749 11.84625 37943 ft 464 kts 337°
2026-05-07 10:36 50.65853 11.81226 37952 ft 463 kts 337°
2026-05-07 10:36 50.71915 11.77841 37961 ft 465 kts 337°
2026-05-07 10:37 50.78019 11.74424 37953 ft 463 kts 337°
2026-05-07 10:37 50.84055 11.71036 37958 ft 463 kts 337°
2026-05-07 10:38 50.90158 11.67599 37965 ft 463 kts 337°
2026-05-07 10:38 50.96195 11.64191 37967 ft 463 kts 337°
2026-05-07 10:39 51.02260 11.60758 37966 ft 463 kts 337°
2026-05-07 10:39 51.08318 11.57319 37969 ft 462 kts 337°
2026-05-07 10:40 51.14369 11.53875 37972 ft 462 kts 337°
2026-05-07 10:40 51.20445 11.50406 37971 ft 462 kts 337°
2026-05-07 10:41 51.26509 11.46935 37977 ft 462 kts 337°
2026-05-07 10:41 51.32544 11.43471 37974 ft 462 kts 337°
2026-05-07 10:42 51.38585 11.39993 37982 ft 462 kts 337°
2026-05-07 10:42 51.44646 11.36495 37983 ft 462 kts 337°
2026-05-07 10:43 51.50696 11.32992 37993 ft 462 kts 337°
2026-05-07 10:43 51.56758 11.29473 38000 ft 462 kts 337°
2026-05-07 10:44 51.62723 11.25716 38007 ft 460 kts 331°
2026-05-07 10:44 51.68355 11.20959 38011 ft 458 kts 329°
2026-05-07 10:45 51.74016 11.16182 38012 ft 458 kts 329°
2026-05-07 10:45 51.79621 11.11418 38009 ft 458 kts 329°
2026-05-07 10:46 51.85410 11.07092 38006 ft 461 kts 338°
2026-05-07 10:46 51.91621 11.04414 38000 ft 465 kts 347°
2026-05-07 10:47 51.97948 11.03012 37998 ft 466 kts 349°
2026-05-07 10:47 52.01261 11.02282 37798 ft 467 kts 349°
2026-05-07 10:47 52.04458 11.01582 37532 ft 466 kts 350°
2026-05-07 10:48 52.07661 11.00887 37266 ft 466 kts 350°
2026-05-07 10:48 52.10901 11.00188 37006 ft 466 kts 350°
2026-05-07 10:48 52.14098 10.99501 36748 ft 466 kts 350°
2026-05-07 10:48 52.17294 10.98814 36496 ft 467 kts 350°
2026-05-07 10:49 52.20539 10.98115 36265 ft 466 kts 350°
2026-05-07 10:49 52.23731 10.97427 36013 ft 466 kts 350°
2026-05-07 10:49 52.26960 10.96730 35766 ft 466 kts 350°
2026-05-07 10:49 52.30185 10.96033 35522 ft 466 kts 350°
2026-05-07 10:50 52.33394 10.95339 35280 ft 466 kts 350°
2026-05-07 10:50 52.36590 10.94646 35044 ft 466 kts 351°
2026-05-07 10:50 52.39808 10.93947 34808 ft 466 kts 351°
2026-05-07 10:50 52.43019 10.93249 34577 ft 466 kts 351°
2026-05-07 10:51 52.46218 10.92552 34329 ft 466 kts 351°
2026-05-07 10:51 52.49459 10.91844 33734 ft 468 kts 351°
2026-05-07 10:51 52.52687 10.91135 32885 ft 470 kts 351°
2026-05-07 10:51 52.55923 10.90421 31949 ft 473 kts 352°
2026-05-07 10:52 52.59197 10.89698 31152 ft 472 kts 352°
2026-05-07 10:52 52.62453 10.88980 30311 ft 472 kts 353°
2026-05-07 10:52 52.65667 10.88271 29624 ft 467 kts 353°
2026-05-07 10:52 52.68844 10.87573 29159 ft 457 kts 353°
2026-05-07 10:53 52.71995 10.86881 28572 ft 449 kts 353°
2026-05-07 10:53 52.75071 10.86204 28005 ft 443 kts 352°
2026-05-07 10:53 52.78092 10.85537 27446 ft 437 kts 352°
2026-05-07 10:53 52.81070 10.84879 26884 ft 432 kts 352°
2026-05-07 10:54 52.84026 10.84228 26330 ft 427 kts 352°
2026-05-07 10:54 52.86949 10.83619 25786 ft 422 kts 352°
2026-05-07 10:54 52.89883 10.83034 25232 ft 418 kts 352°
2026-05-07 10:54 52.92737 10.82468 24690 ft 414 kts 352°
2026-05-07 10:55 52.95584 10.81898 24126 ft 411 kts 352°
2026-05-07 10:55 52.98425 10.81325 23584 ft 408 kts 352°
2026-05-07 10:55 53.01227 10.80756 23010 ft 404 kts 352°
2026-05-07 10:55 53.03984 10.80194 22491 ft 398 kts 352°
2026-05-07 10:56 53.05804 10.79822 22139 ft 395 kts 352°
2026-05-07 10:56 53.08509 10.79268 21615 ft 391 kts 351°
2026-05-07 10:56 53.12098 10.78530 20914 ft 386 kts 351°
2026-05-07 10:56 53.13871 10.78166 20588 ft 383 kts 351°
2026-05-07 10:57 53.16483 10.77591 20078 ft 379 kts 347°
2026-05-07 10:57 53.18960 10.76037 19563 ft 391 kts 327°
2026-05-07 10:57 53.21082 10.73160 19066 ft 391 kts 309°
2026-05-07 10:57 53.22529 10.69442 18567 ft 381 kts 291°
2026-05-07 10:58 53.23369 10.65243 18038 ft 374 kts 284°
2026-05-07 10:58 53.24104 10.61132 17702 ft 370 kts 284°
2026-05-07 10:58 53.24836 10.57005 17673 ft 374 kts 284°
2026-05-07 10:58 53.25576 10.52824 17636 ft 373 kts 284°
2026-05-07 10:59 53.26312 10.48657 17294 ft 371 kts 284°
2026-05-07 10:59 53.27029 10.44565 16776 ft 367 kts 284°
2026-05-07 10:59 53.27734 10.40511 16261 ft 361 kts 284°
2026-05-07 10:59 53.28425 10.36521 15740 ft 349 kts 284°
2026-05-07 11:00 53.29082 10.32721 15242 ft 338 kts 284°
2026-05-07 11:00 53.29725 10.28980 14758 ft 329 kts 284°
2026-05-07 11:00 53.30348 10.25336 14267 ft 320 kts 284°
2026-05-07 11:00 53.30945 10.21808 13793 ft 313 kts 284°
2026-05-07 11:01 53.31522 10.18353 13253 ft 307 kts 284°
2026-05-07 11:01 53.32078 10.14950 12726 ft 301 kts 284°
2026-05-07 11:01 53.32614 10.11610 12212 ft 296 kts 284°
2026-05-07 11:01 53.33136 10.08279 11700 ft 292 kts 284°
2026-05-07 11:02 53.33640 10.04990 11191 ft 288 kts 284°
2026-05-07 11:02 53.34123 10.01769 10652 ft 287 kts 284°
2026-05-07 11:02 53.34599 9.98520 10121 ft 285 kts 284°
2026-05-07 11:02 53.35060 9.95299 9548 ft 284 kts 284°
2026-05-07 11:03 53.35510 9.92114 9019 ft 280 kts 284°
2026-05-07 11:03 53.35944 9.89029 8819 ft 265 kts 284°
2026-05-07 11:03 53.36354 9.86087 8389 ft 258 kts 284°
2026-05-07 11:03 53.36759 9.83174 7816 ft 258 kts 284°
2026-05-07 11:04 53.37161 9.80270 7301 ft 256 kts 284°
2026-05-07 11:04 53.37713 9.77445 6772 ft 253 kts 303°
2026-05-07 11:04 53.38892 9.75305 6266 ft 247 kts 323°
2026-05-07 11:04 53.40201 9.73505 5911 ft 239 kts 324°
2026-05-07 11:05 53.41443 9.71798 5785 ft 225 kts 324°
2026-05-07 11:05 53.42608 9.70188 5652 ft 210 kts 324°
2026-05-07 11:05 53.43816 9.68993 5238 ft 199 kts 346°
2026-05-07 11:05 53.45101 9.67964 5038 ft 208 kts 334°
2026-05-07 11:06 53.46420 9.67191 5011 ft 199 kts
2026-05-07 11:06 53.47624 9.68037 4888 ft 188 kts 44°
2026-05-07 11:06 53.48509 9.69608 4578 ft 180 kts 51°
2026-05-07 11:06 53.49302 9.71168 4287 ft 172 kts 52°
2026-05-07 11:07 53.50043 9.72633 4046 ft 159 kts 53°
2026-05-07 11:07 53.50720 9.73992 3799 ft 145 kts 53°
2026-05-07 11:07 53.51337 9.75221 3614 ft 131 kts 52°
2026-05-07 11:07 53.51931 9.76346 3426 ft 126 kts 51°
2026-05-07 11:08 53.52492 9.77442 3261 ft 125 kts 54°
2026-05-07 11:08 53.53043 9.78564 3068 ft 124 kts 52°
2026-05-07 11:08 53.53591 9.79667 2894 ft 121 kts 53°
2026-05-07 11:08 53.54117 9.80737 2737 ft 119 kts 53°
2026-05-07 11:09 53.54642 9.81798 2573 ft 117 kts 52°
2026-05-07 11:09 53.55168 9.82865 2409 ft 118 kts 53°
2026-05-07 11:09 53.55692 9.83934 2240 ft 120 kts 52°
2026-05-07 11:09 53.56229 9.85016 2072 ft 119 kts 52°
2026-05-07 11:10 53.56739 9.86061 1914 ft 116 kts 52°
2026-05-07 11:10 53.57259 9.87116 1778 ft 121 kts 51°
2026-05-07 11:10 53.57793 9.88195 1586 ft 119 kts 51°
2026-05-07 11:10 53.58307 9.89244 1422 ft 115 kts 51°
2026-05-07 11:11 53.58828 9.90296 1257 ft 118 kts 50°
2026-05-07 11:11 53.59358 9.91370 1034 ft 117 kts 50°
2026-05-07 11:11 53.59857 9.92382 819 ft 111 kts 51°
2026-05-07 11:11 53.60355 9.93395 633 ft 118 kts 52°
2026-05-07 11:12 53.60894 9.94484 420 ft 119 kts 51°
2026-05-07 11:12 53.61419 9.95541 203 ft 115 kts 51°
2026-05-07 11:12 53.61910 9.96537 86 ft 112 kts 51°
2026-05-07 11:12 53.62399 9.97561 42 ft 104 kts 44°
2026-05-07 11:13 53.62703 9.98153 42 ft 47 kts 50°
2026-05-07 11:13 53.62707 9.98399 45 ft 17 kts 149°
2026-05-07 11:13 53.62695 9.98417 45 ft 0 kts 135°
2026-05-07 11:14 53.62673 9.98496 46 ft 11 kts 87°
2026-05-07 11:14 53.62721 9.98613 46 ft 14 kts 52°
2026-05-07 11:15 53.62788 9.98752 46 ft 15 kts 50°
2026-05-07 11:15 53.62859 9.98897 46 ft 15 kts 50°
2026-05-07 11:15 53.62930 9.99041 46 ft 14 kts 50°
2026-05-07 11:15 53.62995 9.99172 46 ft 13 kts 50°
2026-05-07 11:16 53.63053 9.99291 46 ft 14 kts 52°
2026-05-07 11:16 53.63084 9.99365 46 ft 0 kts 55°
2026-05-07 11:17 53.63094 9.99389 46 ft 8 kts 55°
2026-05-07 11:17 53.63142 9.99507 46 ft 15 kts 55°
2026-05-07 11:17 53.63203 9.99634 47 ft 14 kts 50°
2026-05-07 11:17 53.63270 9.99752 48 ft 15 kts 45°
2026-05-07 11:18 53.63337 9.99881 48 ft 14 kts 50°
2026-05-07 11:18 53.63397 10.00002 48 ft 13 kts 50°
2026-05-07 11:18 53.63433 10.00099 48 ft 9 kts 80°
2026-05-07 11:18 53.63408 10.00176 48 ft 7 kts 130°
2026-05-07 11:19 53.63369 10.00225 48 ft 7 kts 166°
2026-05-07 11:19 53.63309 10.00235 48 ft 7 kts 175°
2026-05-07 11:19 53.63288 10.00274 48 ft 3 kts 93°
2026-05-07 11:19 53.63291 10.00337 48 ft 6 kts 86°
2026-05-07 11:20 53.63292 10.00356 48 ft 0 kts 88°